Regional Weather Roundup
Issued by NWS

Home | Current Version | Previous Version | Text Only | Print | Product List | Glossary On
Versions: 1 2 3 4 5 6 7 8 9 10 11 12 13 14 15 16 17 18 19 20 21 22 23 24 25 26 27 28 29 30 31 32 33 34 35 36 37 38 39 40 41 42 43 44 45 46 47 48 49 50
000
ASUS43 KTOP 021008
RWRKS

WEATHER ROUNDUP FOR KANSAS
NATIONAL WEATHER SERVICE GOODLAND KS
500 AM CDT WED SEP 02 2015

NOTE:  "FAIR" INDICATES FEW OR NO CLOUDS BELOW 12,000 FEET WITH NO
SIGNIFICANT WEATHER AND/OR OBSTRUCTIONS TO VISIBILITY.

KSZ001>006-013>018-027>032-041>047-021100-
NORTHWEST KANSAS

CITY           SKY/WX    TMP DP  RH WIND       PRES   REMARKS
GOODLAND       PTCLDY    61  56  83 S6        29.97S
HAYS           CLEAR     75  55  50 S10       29.93S
HILL CITY      CLEAR     75  57  53 SW8       29.91S
RUSSELL        CLEAR     76  60  57 S17       29.91F
$$

KSZ061>065-074>080-084>089-021100-
SOUTHWEST KANSAS

CITY           SKY/WX    TMP DP  RH WIND       PRES   REMARKS
DODGE CITY     CLEAR     71  57  61 S10       29.98F
ELKHART          N/A     67  56  68 SW9         N/A
GARDEN CITY    PTCLDY    66  56  70 S7        29.97F
GREAT BEND     CLEAR     75  59  57 S16       29.94F
LIBERAL        PTCLDY    73  55  53 S10       30.00S
PRATT          CLEAR     72  59  64 MISG      30.00S
$$

KSZ066>073-081>083-090>101-021100-
SOUTHEAST KANSAS

CITY           SKY/WX    TMP DP  RH WIND       PRES   REMARKS
CHANUTE        CLEAR     72  66  81 S10       30.01S
COFFEYVILLE    CLEAR     71  67  87 S8        30.02R
HUTCHINSON     PTCLDY    76  62  62 S13       29.98R
MEDICINE LODGE   N/A     72  62  71 SE6       29.98F
NEWTON         CLEAR     73  61  64 S15       30.01R
PARSONS        CLEAR     71  67  87 S5        30.03R
WICHITA INTL   PTCLDY    73  63  70 S13       29.98S
WICHITA JABRA  CLEAR     75  63  66 S14       29.99R
WICHITA MCCONL CLEAR     73  63  71 S12       29.99S
WINFIELD       PTCLDY    75  64  68 S12       30.01S
$$

KSZ007>012-019>026-033>040-048>060-102>105-021100-
NORTHEAST KANSAS

CITY           SKY/WX    TMP DP  RH WIND       PRES   REMARKS
CONCORDIA      PTCLDY    74  65  73 S14       29.91R
EMPORIA        PTCLDY    70  66  87 S13       29.98R
LAWRENCE       CLEAR     71  66  84 SE9       29.97F
MANHATTAN      PTCLDY    77  66  68 SW12      29.93S
MARYSVILLE     PTCLDY   N/A N/A N/A S10       29.92S
OLATHE IND     CLEAR     70  66  87 S8        30.00S
OLATHE EXE     PTCLDY    69  65  86 S8        30.00R
SALINA         CLEAR     78  63  59 S15       29.93R
TOPEKA BILLARD PTCLDY    75  66  73 VRB3      29.96R
TOPEKA FORBES  PTCLDY    75  66  73 S12       29.96S
$$



USA.gov is the U.S. government's official web portal to all federal, state and local government web resources and services.